EZY1480 EGKK-EGTE

Flight info

Callsign EZY1480
Flight time N/A
Altitude 22000
Route IMVUR1Z IMVUR N63 SAM DCT
Aircraft A20N/M-SDE2E3FGHIRWXY/LB1

Departure

Time N/A
Airport London Gatwick Airport (EGKK)

Arrival

Time 2026-05-04 13:43
Airport Exeter International Airport (EGTE)
Time Latitude Longitude Altitude Speed Heading
2026-05-04 13:42 50.73079 -3.41910 101 ft 0 kts 117°
2026-05-04 13:48 50.73079 -3.41911 101 ft 0 kts 117°
2026-05-04 13:48 50.73087 -3.41928 100 ft 2 kts 131°
2026-05-04 13:48 50.73096 -3.41947 100 ft 2 kts 123°
2026-05-04 13:48 50.73105 -3.41967 99 ft 2 kts 126°
2026-05-04 13:49 50.73113 -3.41986 99 ft 1 kts 125°
2026-05-04 13:49 50.73116 -3.41993 99 ft 0 kts 112°
2026-05-04 13:49 50.73117 -3.41999 99 ft 1 kts 63°
2026-05-04 13:49 50.73115 -3.42006 99 ft 0 kts 67°
2026-05-04 13:52 50.73121 -3.41981 98 ft 3 kts 67°
2026-05-04 13:52 50.73140 -3.41919 98 ft 9 kts 62°
2026-05-04 13:52 50.73184 -3.41801 97 ft 15 kts 59°
2026-05-04 13:53 50.73213 -3.41623 97 ft 17 kts 103°
2026-05-04 13:53 50.73206 -3.41401 98 ft 24 kts 91°
2026-05-04 13:53 50.73233 -3.41119 100 ft 25 kts 63°
2026-05-04 13:54 50.73494 -3.41040 98 ft 18 kts 60°
2026-05-04 13:54 50.73509 -3.40868 100 ft 20 kts 78°
2026-05-04 13:54 50.73614 -3.40194 106 ft 32 kts 78°
2026-05-04 13:55 50.73624 -3.39982 107 ft 7 kts 29°
2026-05-04 13:55 50.73562 -3.40535 104 ft 86 kts 257°
2026-05-04 13:55 50.73354 -3.41840 134 ft 149 kts 253°
2026-05-04 13:56 50.73107 -3.43444 704 ft 157 kts 256°
2026-05-04 13:56 50.72836 -3.45147 1353 ft 166 kts 254°
2026-05-04 13:56 50.72688 -3.48812 2614 ft 182 kts 295°
2026-05-04 13:57 50.73510 -3.50296 3206 ft 188 kts 335°
2026-05-04 13:57 50.74798 -3.50455 3706 ft 197 kts 22°
2026-05-04 13:58 50.76622 -3.44182 5370 ft 252 kts 78°
2026-05-04 13:58 50.79129 -3.40433 6987 ft 277 kts
2026-05-04 13:58 50.81028 -3.40568 7968 ft 281 kts 354°
2026-05-04 13:59 50.82980 -3.40858 8930 ft 286 kts 359°
2026-05-04 13:59 50.84959 -3.40903 9870 ft 290 kts
2026-05-04 13:59 50.89104 -3.40455 11238 ft 317 kts
2026-05-04 14:00 50.91363 -3.40052 11729 ft 336 kts
2026-05-04 14:00 50.96241 -3.39063 12653 ft 372 kts
2026-05-04 14:00 50.98853 -3.38510 13331 ft 381 kts
2026-05-04 14:01 51.01477 -3.37949 14141 ft 386 kts
2026-05-04 14:01 51.04122 -3.37381 14924 ft 390 kts
2026-05-04 14:01 51.09546 -3.36214 16448 ft 400 kts
2026-05-04 14:02 51.12300 -3.35621 17184 ft 403 kts
2026-05-04 14:02 51.15112 -3.35012 17881 ft 408 kts
2026-05-04 14:02 51.17937 -3.34398 18560 ft 413 kts
2026-05-04 14:02 51.20766 -3.33792 19241 ft 417 kts
2026-05-04 14:03 51.23651 -3.33206 19923 ft 421 kts
2026-05-04 14:03 51.26576 -3.32622 20592 ft 424 kts
2026-05-04 14:03 51.29492 -3.32039 21253 ft 428 kts
2026-05-04 14:03 51.32446 -3.31445 21882 ft 431 kts
2026-05-04 14:04 51.38415 -3.30239 23093 ft 439 kts
2026-05-04 14:04 51.41489 -3.29614 23680 ft 442 kts
2026-05-04 14:04 51.44515 -3.28998 23992 ft 444 kts
2026-05-04 14:05 51.50640 -3.27748 24011 ft 443 kts
2026-05-04 14:05 51.53700 -3.27125 24010 ft 443 kts
2026-05-04 14:05 51.56747 -3.26504 24014 ft 442 kts
2026-05-04 14:06 51.59778 -3.25885 24016 ft 441 kts
2026-05-04 14:06 51.62853 -3.25255 24021 ft 441 kts
2026-05-04 14:06 51.65873 -3.24636 24024 ft 441 kts
2026-05-04 14:06 51.68934 -3.24007 24018 ft 441 kts
2026-05-04 14:07 51.71983 -3.23379 24018 ft 441 kts
2026-05-04 14:07 51.75019 -3.22753 24014 ft 441 kts
2026-05-04 14:07 51.78041 -3.22129 24010 ft 441 kts
2026-05-04 14:07 51.81102 -3.21496 24013 ft 440 kts
2026-05-04 14:08 51.84138 -3.20868 24015 ft 441 kts
2026-05-04 14:08 51.87162 -3.20242 24013 ft 441 kts
2026-05-04 14:08 51.90213 -3.19666 24015 ft 440 kts
2026-05-04 14:08 51.93271 -3.19312 24022 ft 439 kts
2026-05-04 14:09 51.99398 -3.18852 24019 ft 439 kts